This is the latest recevied weather packets stored in our database for station/object KI2K. If no packets are shown the sender has not sent any weather packets the latest 10 day(s).
| Time | Temp. | Humidity | Pressure | Rain* | Wind** | Luminosity | Snow |
|---|---|---|---|---|---|---|---|
| 1777809312 | 6.11° C | 72% | 1018 hPa | 0 mm | - | 57 W/m² | - |
| 1777809009 | 6.11° C | 73% | 1017.9 hPa | 0 mm | - | 51 W/m² | - |
| 1777808707 | 5.56° C | 74% | 1017.9 hPa | 0 mm | - | 46 W/m² | - |
| 1777808403 | 5° C | 74% | 1017.8 hPa | 0 mm | - | 41 W/m² | - |
| 1777808101 | 5° C | 75% | 1017.9 hPa | 0 mm | - | 35 W/m² | - |
| 1777807799 | 4.44° C | 75% | 1017.9 hPa | 0 mm | - | 31 W/m² | - |
| 1777807497 | 4.44° C | 76% | 1017.6 hPa | 0 mm | - | 27 W/m² | - |
| 1777807193 | 4.44° C | 77% | 1017.6 hPa | 0 mm | - | 20 W/m² | - |
| 1777806890 | 3.89° C | 77% | 1017.5 hPa | 0 mm | - | 16 W/m² | - |
| 1777806586 | 3.89° C | 77% | 1017.6 hPa | 0 mm | - | 13 W/m² | - |
| 1777806282 | 3.89° C | 78% | 1017.7 hPa | 0 mm | - | 10 W/m² | - |
| 1777805979 | 3.89° C | 77% | 1017.8 hPa | 0 mm | - | 7 W/m² | - |
| 1777805675 | 3.89° C | 78% | 1017.8 hPa | 0 mm | - | 4 W/m² | - |
| 1777805373 | 3.89° C | 78% | 1017.6 hPa | 0 mm | - | 2 W/m² | - |
| 1777805072 | 3.89° C | 78% | 1017.3 hPa | 0 mm | - | 0 W/m² | - |
| 1777804768 | 3.89° C | 78% | 1017.4 hPa | 0 mm | - | 0 W/m² | - |
| 1777804466 | 3.33° C | 79% | 1017.4 hPa | 0 mm | - | 0 W/m² | - |
| 1777804163 | 3.89° C | 79% | 1017.4 hPa | 0 mm | - | 0 W/m² | - |
| 1777803860 | 3.33° C | 79% | 1017.3 hPa | 0 mm | - | 0 W/m² | - |
| 1777803555 | 3.33° C | 79% | 1017.3 hPa | 0 mm | - | 0 W/m² | - |
| 1777803254 | 3.33° C | 79% | 1017.4 hPa | 0 mm | - | 0 W/m² | - |
| 1777802950 | 3.33° C | 79% | 1017.4 hPa | 0 mm | - | 0 W/m² | - |
| 1777802649 | 3.33° C | 80% | 1017.3 hPa | 0 mm | - | 0 W/m² | - |
| 1777802345 | 3.33° C | 80% | 1017.5 hPa | 0 mm | - | 0 W/m² | - |
| 1777802044 | 3.33° C | 80% | 1017.3 hPa | 0 mm | - | 0 W/m² | - |
* Rain latest hour (hover to see other rain measurements)
** Current wind speed in m/s (hover to see current wind gust speed)